Tracking 19969 objects as of 12-Nov-2019
Live streaming from Space Station
objects crossing your sky now
Track the group of recently launched Starlink satellites

NOAA 16 DEB

Track NOAA 16 DEB now!
10-day predictions


NORAD ID: 41048
Int'l Code: 2000-055F
Perigee: 759.7 km
Apogee: 821.7 km
Inclination: 98.9 °
Period: 100.5 minutes
Semi major axis: 7161 km
RCS: Unknown
Launch date: September 21, 2000
Source: United States (US)
Launch site: AIR FORCE WESTERN TEST RANGE (AFWTR)

Note: This is SATELLITE DEBRIS
aabbcc
Your satellite tracking list
Your tracking list is empty




NASA's NSSDC Master Catalog

Two Line Element Set (TLE):
1 41048U 00055F   19315.86109205  .00023235  00000-0  84822-2 0  9998
2 41048  98.9221  96.3929 0043240 172.1568 188.0300 14.32452219205922
Source of the keplerian elements: AFSPC